Weather History for CWEB - December, 2012

Change the Weather History Date:

Monday, December 3, 2012

  Actual Average Record
Temperature  
Mean Temperature 45 °F -  
Max Temperature 50 °F - - ()
Min Temperature 40 °F - - ()
Degree Days  
Heating Degree Days 20    
Moisture  
Dew Point 44 °F    
Average Humidity 92    
Maximum Humidity 99    
Minimum Humidity 76    
Precipitation  
Precipitation 0.35 in - - ()
Sea Level Pressure  
Sea Level Pressure 29.68 in    
Wind  
Wind Speed 15 mph ()    
Max Wind Speed 41 mph    
Max Gust Speed 51 mph    
T = Trace of Precipitation, MM = Missing Value Source: Averaged Metar Reports

Daily Weather History Graph

Daily Weather History Graph

Search for Another Location

Airport or City:

Trip Planner

Search our weather history database for the weather conditions in past years. The results will help you decide how hot, cold, wet, or windy it might be!

Date:

Astronomy

Dec. 03, 2012 Rise Set
Actual Time 8:03 AM PST 4:28 PM PST
Civil Twilight 7:26 AM PST 5:05 PM PST
Nautical Twilight 6:46 AM PST 5:45 PM PST
Astronomical Twilight 6:07 AM PST 6:24 PM PST
Moon 9:37 PM PST (12/3) 11:16 AM PST (12/3)
Length of Visible Light 9h 38m
Length of Day
8h 24m
Waning Gibbous, 77% of the Moon is Illuminated
Dec 3
Waning Gibbous
Dec 6
Last Quarter
Dec 13
New
Dec 19
First Quarter
Dec 28
Full

Hourly Weather History & Observations

Time (PST) Temp. Windchill Dew Point Humidity Pressure Visibility Wind Dir Wind Speed Gust Speed Precip Events Conditions
12:00 AM 44.2 °F 35.9 °F 43.5 °F 97% 29.57 in - SW 20.7 mph 34.5 mph 0.02 in   Unknown
1:00 AM 45 °F - 42 °F 83% 29.60 in - SSW 13.8 mph - -  
1:00 AM 45.1 °F 38.8 °F 41.5 °F 87% 29.60 in - SSW 13.8 mph - 0.02 in   Unknown
2:00 AM 46.0 °F 39.6 °F 43.0 °F 89% 29.63 in - SW 15.0 mph - N/A   Unknown
3:00 AM 45.5 °F 38.3 °F 41.2 °F 85% 29.68 in - SW 17.3 mph - 0.02 in   Unknown
4:00 AM 47 °F - 42 °F 76% 29.70 in - SW 16.1 mph - -  
4:00 AM 46.8 °F - 41.9 °F 83% 29.70 in - SW 16.1 mph - N/A   Unknown
5:00 AM 46.6 °F - 40.8 °F 80% 29.73 in - WSW 16.1 mph - 0.02 in   Unknown
6:00 AM 45.3 °F 39.3 °F 41.2 °F 85% 29.75 in - West 12.7 mph 19.6 mph N/A   Unknown
7:00 AM 41 °F - 40 °F 94% 29.78 in - ENE 2.3 mph - -  
7:00 AM 41.0 °F - 39.9 °F 96% 29.78 in - ENE 2.3 mph - N/A   Unknown
8:00 AM 41.7 °F 33.4 °F 41.2 °F 98% 29.81 in - SSE 17.3 mph - N/A   Unknown
9:00 AM 42.6 °F 37.8 °F 41.7 °F 97% 29.82 in - ESE 8.1 mph - N/A   Unknown
10:00 AM 44 °F - 43 °F 97% 29.82 in - East 9.2 mph - -  
10:00 AM 44.2 °F 39.2 °F 43.3 °F 97% 29.82 in - East 9.2 mph - N/A   Unknown
11:00 AM 46.8 °F - 43.0 °F 87% 29.84 in - ESE 13.8 mph 21.9 mph N/A   Unknown
12:00 PM 47.1 °F - 43.3 °F 87% 29.83 in - East 15.0 mph 28.8 mph N/A   Unknown
1:00 PM 49 °F - 45 °F 79% 29.81 in - ESE 17.3 mph - -  
1:00 PM 48.7 °F - 44.6 °F 86% 29.81 in - ESE 17.3 mph 33.4 mph N/A   Unknown
2:00 PM 47.5 °F - 44.4 °F 89% 29.79 in - East 16.1 mph 27.6 mph N/A   Unknown
3:00 PM 47.5 °F - 45.3 °F 92% 29.76 in - ESE 19.6 mph 31.1 mph N/A   Unknown
4:00 PM 47 °F - 45 °F 92% 29.73 in - ESE 16.1 mph - -  
4:00 PM 46.9 °F - 45.3 °F 94% 29.73 in - ESE 16.1 mph 31.1 mph 0.09 in   Unknown
5:00 PM 46.8 °F - 46.0 °F 97% 29.68 in - East 18.4 mph 34.5 mph 0.09 in   Unknown
6:00 PM 48.6 °F - 48.0 °F 98% 29.65 in - East 19.6 mph 29.9 mph 0.04 in   Unknown
7:00 PM 49 °F - 49 °F 99% 29.60 in - ESE 19.6 mph - -  
7:00 PM 49.3 °F - 48.7 °F 98% 29.60 in - ESE 19.6 mph 34.5 mph 0.03 in   Unknown
8:00 PM 50.0 °F - 49.5 °F 98% 29.54 in - ESE 20.7 mph 38.0 mph 0.05 in   Unknown
9:00 PM 50.2 °F - 49.6 °F 98% 29.49 in - ESE 32.2 mph 40.3 mph 0.08 in   Unknown
10:00 PM 50 °F - 50 °F 98% 29.44 in - ESE 35.7 mph - -  
10:00 PM 50.0 °F - 49.6 °F 99% 29.44 in - ESE 35.7 mph 46.0 mph 0.09 in   Unknown
11:00 PM 49.8 °F - 49.5 °F 99% 29.38 in - SE 41.4 mph 50.6 mph 0.16 in   Unknown